Location: Unspecified
(33.9239°N, 118.0544°W)
Time: 07:20:25
(UTC-07:00)

Cosmos 1674 - Visible Passes

Search period start: 28 March 2015 00:00
Search period end: 07 April 2015 00:00
Orbit: 507 x 535 km, 82.5° (Epoch: 28 March)

Date Brightness Start Highest point End Pass type
(mag) Time Alt. Az. Time Alt. Az. Time Alt. Az.
28 Mar 4.1 19:58:16 10° NNE 20:01:00 19° ENE 20:02:04 17° E visible
28 Mar 5.1 21:33:53 10° NW 21:36:48 20° W 21:37:15 20° W visible
29 Mar 4.3 19:45:14 10° NE 19:47:38 16° ENE 19:49:52 11° ESE visible
29 Mar 4.9 21:20:22 10° NW 21:23:30 24° W 21:25:04 18° SW visible
30 Mar 4.7 21:06:53 10° NNW 21:10:13 28° W 21:13:00 13° SW visible
31 Mar 4.4 20:53:25 10° NNW 20:56:54 33° W 21:00:22 10° SSW visible
01 Apr 4.1 20:39:58 10° NNW 20:43:36 39° W 20:47:12 10° SSW visible
02 Apr 3.7 20:26:34 10° NNW 20:30:16 47° W 20:33:58 10° SSW visible
03 Apr 3.4 20:13:08 10° NNW 20:16:56 57° W 20:20:43 10° S visible
04 Apr 3.1 19:59:44 10° NNW 20:03:34 69° W 20:07:25 10° S visible
05 Apr 2.8 19:46:21 10° N 19:50:12 83° W 19:54:05 10° S visible
